Regional Weather Roundup
Issued by NWS Boston, MA

Current Version | Previous Version | Text Only | Print | Product List | Glossary Off
Versions: 1 2 3 4 5 6 7 8 9 10 11 12 13 14 15 16 17 18 19 20 21 22 23 24 25 26 27 28

000
ASUS41 KBOX 240810
RWRBOX

REGIONAL WEATHER ROUNDUP
NATIONAL WEATHER SERVICE TAUNTON MA
300 AM EST FRI NOV 24 2017

NOTE:  "FAIR" INDICATES FEW OR NO CLOUDS BELOW 12,000 FEET WITH NO
SIGNIFICANT WEATHER AND/OR OBSTRUCTIONS TO VISIBILITY.

MAZALL-240900-
EASTERN MASSACHUSETTS

CITY           SKY/WX    TMP DP  RH WIND       PRES   REMARKS
BOSTON         PTCLDY    32  22  66 SW8       29.99S WCI  25
BEVERLY        CLEAR     30  20  66 CALM      29.97F
LAWRENCE       CLEAR     30  20  66 SW5       29.99S WCI  25
BEDFORD        CLEAR     24  20  84 CALM      29.97F
BLUE HILL      NOT AVBL
NORWOOD        CLEAR     24  21  88 CALM      30.00S
MARSHFIELD     CLEAR     27  25  93 W3        29.99F
PLYMOUTH       CLEAR     26  21  81 CALM      29.99F
TAUNTON        CLEAR     25  22  88 CALM      29.99F
NEW BEDFORD    CLEAR     25  22  88 CALM      30.00S
$$

MAZALL-240900-
CAPE COD AND THE ISLANDS

CITY           SKY/WX    TMP DP  RH WIND       PRES   REMARKS
FALMOUTH       CLEAR     28  21  74 NW6       30.00F WCI  22
HYANNIS        CLEAR     27  21  78 NW3       29.98F
CHATHAM        CLEAR     31  22  69 W5        30.00S WCI  26
PROVINCETOWN   CLEAR     36  22  56 W10       29.99S WCI  28
NANTUCKET      CLEAR     35  25  66 W6        30.00S WCI  30
MARTHAS VNYRD  CLEAR     24  20  84 CALM      30.00F
$$

MAZALL-240900-
CENTRAL AND WESTERN MASSACHUSETTS

CITY           SKY/WX    TMP DP  RH WIND       PRES   REMARKS
WORCESTER      CLEAR     28  18  66 W13       29.94S WCI  17
FITCHBURG      CLEAR     31  24  75 CALM      29.96F
ORANGE         CLEAR     23  22  96 CALM      29.97S
SPRINGFIELD    CLEAR     26  20  77 CALM      29.98F
WESTFIELD      CLEAR     26  23  88 CALM      29.99F
NORTH ADAMS    MOCLDY    29  24  82 CALM      29.97S
PITTSFIELD     CLOUDY    33  19  56 SW7       29.94F WCI  27
$$

RIZALL-240900-
RHODE ISLAND

CITY           SKY/WX    TMP DP  RH WIND       PRES   REMARKS
PROVIDENCE     CLEAR     31  23  72 W3        30.02S
NEWPORT        CLEAR     29  25  85 CALM      30.00S
BLOCK ISLAND   CLEAR     37  26  64 W6        30.01S
SMITHFIELD     CLEAR     27  23  85 VRB3      29.98F
WESTERLY       CLEAR     27  26  96 CALM      30.01F
$$

CTZALL-240900-
CONNECTICUT

CITY           SKY/WX    TMP DP  RH WIND       PRES   REMARKS
BRADLEY INTL   CLEAR     27  21  78 S3        30.01S
HARTFORD       CLEAR     27  24  89 CALM      30.01F
BRIDGEPORT     CLEAR     33  22  63 CALM      30.03S
DANBURY        CLEAR     25  21  85 CALM      30.02S
GROTON         CLEAR     27  23  85 CALM      30.01F
NEW HAVEN      CLEAR     26  21  81 CALM      30.02S
CHESTER        FAIR      30  18  59 CALM      30.00S
MERIDEN        CLEAR     22  20  92 CALM      30.02S
WILLIMANTIC    CLEAR     26  23  88 CALM      30.02R
OXFORD         CLEAR     29  20  69 N5        29.99F WCI  24
$$

MEZ002-015-021-024-NHZ003-005-008-011-012-014-VTZ005-008-240900-
NORTHERN NEW ENGLAND

CITY           SKY/WX    TMP DP  RH WIND       PRES   REMARKS
PORTLAND ME    PTCLDY    29  18  63 SW8       29.94R WCI  21
BANGOR ME      CLOUDY    28  20  71 S5        29.89F WCI  23
CONCORD NH     CLEAR     23  18  81 CALM      29.95R
MANCHESTER NH  CLEAR     28  20  71 CALM      29.95S
NASHUA NH      CLEAR     26  22  84 CALM      29.97F
PORTSMOUTH NH  PTCLDY    28  17  64 SW5       29.94F WCI  23
JAFFREY NH     CLEAR     30  21  69 SW7       29.93S WCI  23
KEENE NH       CLEAR     22  17  81 CALM      29.97S
BURLINGTON VT  CLOUDY    35  24  64 S13       29.90F WCI  26
MT. WASHINGTON FOG       12  12 100 W60         N/A  VSB 0   WCI -15
$$

NYZ052-076-240900-
EASTERN NEW YORK

CITY           SKY/WX    TMP DP  RH WIND       PRES   REMARKS
ALBANY         CLOUDY    31  20  63 S5        29.99F WCI  26
NEW YORK CITY  CLEAR     39  22  50 W6        30.04R
$$

ANZALL-240900-
MARINE OBSERVATIONS

STATION/POSITION TIME  TEMP    WIND        PRES    VSBY  WAVE
                       AIR SEA DIR/SP/G                  HT/PER
                 (UTC) (F)     (DEG/KT/KT) (MB)    (MI)  (FT/S)
BOSTON BUOY      0750   39 50  270/ 10/ 14 1014.1S         2/11
BUZZARDS BAY     0700   40     290/ 11/ 12 1016.5S
NANTUCKET SOUND  0750   42 49  300/ 16/ 17 1015.5F         2/ 3
MASS BAY-STELLWA 0704   39 49  270/ 12/ 14 1014.3R         3/11
ISLE OF SHOALS   0700   36     240/ 13/ 15 1014.4R
S OF BLOCK IS    NOT AVBL
$$

......................KEY.........................
  SKY/WX - SKY CONDITION/PRESENT WEATHER
  TMP    - TEMPERATURE IN FAHRENHEIT
  DWPT   - DEWPOINT IN FAHRENHEIT
  RH     - RELATIVE HUMIDITY IN PERCENT
  WIND   - DIRECTION AND SPEED IN MPH
  PRES   - MEAN SEA LEVEL PRESSURE IN INCHES OF HG
  WCI    - WIND CHILL INDEX
  VSB    - VISIBILITY IN MILES
  HX     - HEAT INDEX
  TC     - TEMPERATURE IN CELSIUS
  VRB    - VARIABLE WIND DIRECTION
  N/A    - NOT AVAILABLE




USA.gov is the U.S. government's official web portal to all federal, state and local government web resources and services.